Погода в Садовом

Россия / Республика Адыгея     45°00′03″N   39°41′48″E
темп.,
°C
ветер,
м/с
пор.,
м/с
влажн.,
%
обл.,
%
осадки,
мм/ч
давл.,
гПа
погр.,
м
16 мая, вс
вс1600:00+18всв22915 0.0 101018
03:00+17св229457 0.6 101111
06:00+18всв23979 0.1 1009106
09:00+23всв248697 0.1 1008562
12:00+27всв5668100 0.0 1006984
15:00+27всв5766100 0.0 1004920
18:00+26св488127 0.0 1002318
21:00+21в411890 0.0 1002192
17 мая, пн
пн1700:00+18ююв229028 0.0 100224
03:00+18з31093100 0.0 1003211
06:00+17з2588100 0.0 1005126
09:00+20зюз3777100 0.1 1006607
12:00+23зюз4664100 1.1 10071075
15:00+21з2577100 3.4 1008325
18:00+20юз2486100 2.8 1008154
21:00+17ююз3693100 5.6 1010155
18 мая, вт
вт1800:00+15зюз61194100 6.1 1010289
03:00+14зюз3694100 6.8 1010172
06:00+14з289679 0.0 1011269
09:00+19зюз457953 0.0 1011662
12:00+22з57654 0.0 10101185
15:00+22з68630 0.0 10101249
18:00+20з48745 0.0 1011372
21:00+15юз118422 0.0 101111
19 мая, ср
ср1900:00+14юв229194 0.1 101030
03:00+15з41192100 1.1 1012544
06:00+14ююз31099100 5.6 1013613
09:00+15зюз511886 6.3 1014605
12:00+20зюз912624 0.0 10151727
15:00+20зюз813650 0.3 10151876
18:00+17юз813710 0.0 10161090
21:00+14юз513780 0.0 1018393
20 мая, чт
чт2000:00+11зюз38890 0.0 1018154
03:00+10ю33931 0.0 101849
06:00+10ююв34844 0.0 101979
09:00+18вюв336671 0.0 1018495
12:00+21всв34527 0.0 1017905
15:00+23всв45515 0.0 10151106
18:00+21всв49740 0.0 1014327
21:00+16всв413880 0.0 1014216